Погода в Верхнем Таштыпе

Россия / Республика Хакасия     52°48′44″N   89°26′37″E
темп.,
°C
ветер,
м/с
пор.,
м/с
влажн.,
%
обл.,
%
осадки,
мм/ч
давл.,
гПа
погр.,
м
24 мая, вт
вт2401:00+8ссв21936 0.0 102422
04:00+7св239830 0.0 102466
07:00+10всв398114 0.0 1023551
10:00+15всв685557 0.0 1021934
13:00+19всв7844100 0.0 10181177
16:00+21всв684339 0.0 10161120
19:00+20всв610483 0.0 1015912
22:00+15всв3116096 0.0 1016553
25 мая, ср
ср2501:00+11ссв117993 0.0 101611
04:00+10св1186100 0.0 101610
07:00+13всв117160 0.0 1015127
10:00+20всв234974 0.1 1014734
13:00+24всв333965 0.1 1012985
16:00+26всв443789 0.0 10111257
19:00+22в4748100 0.1 1012710
22:00+15ссв2266100 0.1 101417
26 мая, чт
чт2601:00+14ссв116794 0.1 101412
04:00+12ссв117214 0.0 101410
07:00+15всв1160100 0.0 1014114
10:00+20всв474158 0.0 1013837
13:00+24всв57303 0.0 10121421
16:00+25всв56284 0.0 10101477
19:00+23всв47380 0.0 10101111
22:00+17всв41255100 0.0 1010464
27 мая, пт
пт2701:00+13св2564100 0.0 1010119
04:00+11ссв1167100 0.0 101010
07:00+14всв1157100 0.0 1010130
10:00+20в113941 0.0 1008764
13:00+25в133139 0.0 10061693
16:00+25с363358 0.2 10032270
19:00+17юз2579100 2.1 1006323
22:00+12зюз11975 2.9 100921
28 мая, сб
сб2801:00+11св119793 3.3 101016
04:00+10св24820 0.0 1012116
07:00+11св26761 0.0 1013376
10:00+16всв344871 0.0 1013904
13:00+20всв3240100 0.0 10111394
16:00+21всв3236100 0.0 10101537
19:00+19в334296 0.0 1011690
22:00+12св1165100 0.0 101211